Regional Weather Roundup
Issued by NWS

Home | Current Version | Previous Version | Text Only | Print | Product List | Glossary Off
Versions: 1 2 3 4 5 6 7 8 9 10 11 12 13 14 15 16 17 18 19 20 21 22 23 24 25 26 27 28 29 30 31 32 33 34 35 36 37 38 39 40 41 42 43 44 45 46 47 48 49 50

000
ASUS43 KFSD 311902
RWRSD

WEATHER ROUNDUP FOR SOUTH DAKOTA
NATIONAL WEATHER SERVICE SIOUX FALLS SD
200 PM CDT MON AUG 31 2015

NOTE: "FAIR" INDICATES FEW OR NO CLOUDS BELOW 12,000 FEET WITH NO
SIGNIFICANT WEATHER AND/OR OBSTRUCTIONS TO VISIBILITY.


SDZ001>005-009-010-012>017-312000-
NORTHWEST AND NORTH CENTRAL SOUTH DAKOTA

CITY           SKY/WX    TMP DP  RH WIND       PRES   REMARKS
MOBRIDGE       CLOUDY    78  61  55 N13       29.88R
$$

SDZ012>016-024>037-041>051-057-063-072>074-312000-
SOUTHWEST AND SOUTH CENTRAL SOUTH DAKOTA

CITY           SKY/WX    TMP DP  RH WIND       PRES   REMARKS
RAPID CTY ARPT CLOUDY    71  55  56 N12       30.01F
PIERRE         CLOUDY    75  60  59 N15       29.90F
CUSTER         CLOUDY    71  51  49 S9        30.11R
ELLSWORTH AFB  CLOUDY    71  53  52 N8        30.01F
PHILIP         CLOUDY    73  60  63 NW8       29.97R
PINE RIDGE     CLOUDY    70  55  59 NE7       30.02S
WINNER         FAIR      84  61  45 N21       29.90R HAZE
$$

SDZ004>011-016>023-039-040-312000-
NORTHEAST SOUTH DAKOTA

CITY           SKY/WX    TMP DP  RH WIND       PRES   REMARKS
ABERDEEN       CLOUDY    79  63  57 N16       29.82F HAZE
WATERTOWN      SUNNY     84  64  50 SW15      29.84R
BROOKINGS      SUNNY     81  68  65 S18       29.87S
$$

SDZ017-020-022-023-036>040-048>070-312000-
SOUTHEAST SOUTH DAKOTA

CITY           SKY/WX    TMP DP  RH WIND       PRES   REMARKS
SIOUX FALLS    SUNNY     81  70  69 S20G29    29.87F
HURON          SUNNY     87  61  41 VRB5      29.81S
MITCHELL       SUNNY     87  65  47 S12G21    29.83S
YANKTON        SUNNY     82  68  61 S15G22    29.85S
$$

ABBREVIATIONS USED IN REMARKS
   TC - TEMPERATURE IN CELSIUS
  WCI - WIND CHILL INDEX
   HX - HEAT INDEX
  VSB - VISIBILITY



USA.gov is the U.S. government's official web portal to all federal, state and local government web resources and services.